Location: Kielce
(50.8833°N, 20.6167°E)
Time: 22:27:52
(UTC+02:00)

Transit 2A - All Passes

Search period start: 17 April 2021 00:00
Search period end: 27 April 2021 00:00
Orbit: 602 x 957 km, 66.7° (Epoch: 17 April)

Date Brightness Start Highest point End Pass type
(mag) Time Alt. Az. Time Alt. Az. Time Alt. Az.
17 Apr - 08:10:14 10° S 08:14:37 38° ESE 08:18:45 10° NE daylight
17 Apr - 09:53:26 10° WSW 09:57:46 38° NW 10:01:53 10° NNE daylight
17 Apr - 11:39:58 10° NW 11:42:07 13° NNW 11:44:15 10° N daylight
17 Apr - 13:26:10 10° N 13:27:16 11° N 13:28:23 10° NNE daylight
17 Apr - 15:08:29 10° NNW 15:12:02 24° NE 15:15:39 10° E daylight
17 Apr - 16:51:13 10° NW 16:55:36 74° SW 17:00:11 10° SSE daylight
17 Apr - 18:36:52 10° W 18:37:59 11° WSW 18:39:06 10° WSW daylight
18 Apr - 07:36:36 10° S 07:40:33 27° ESE 07:44:19 10° ENE daylight
18 Apr - 09:18:56 10° WSW 09:23:29 51° NW 09:27:47 10° NNE daylight
18 Apr - 11:04:57 10° WNW 11:07:36 15° NNW 11:10:14 10° NNE daylight
18 Apr - 12:52:02 10° N 12:52:41 10° N 12:53:20 10° NNE daylight
18 Apr - 14:34:26 10° NNW 14:37:37 19° NNE 14:40:51 10° ENE daylight
18 Apr - 16:17:02 10° NW 16:21:25 79° NE 16:26:02 10° SE daylight
18 Apr - 18:01:17 10° WNW 18:04:01 16° WSW 18:06:52 10° SSW daylight
19 Apr - 07:03:17 10° SSE 07:06:32 19° ESE 07:09:41 10° ENE daylight
19 Apr - 08:44:34 10° SW 08:49:15 71° NW 08:53:39 10° NE daylight
19 Apr - 10:30:00 10° WNW 10:33:08 18° NNW 10:36:12 10° NNE daylight
19 Apr - 12:17:32 10° N 12:18:06 10° N 12:18:40 10° N daylight
19 Apr - 14:00:24 10° NNW 14:03:09 16° NNE 14:05:55 10° ENE daylight
19 Apr - 15:42:53 10° NNW 15:47:12 56° NE 15:51:43 10° SE daylight
19 Apr - 17:26:31 10° WNW 17:30:01 23° WSW 17:33:42 10° SSW daylight
20 Apr - 06:30:29 10° SE 06:32:34 13° ESE 06:34:36 10° E daylight
20 Apr - 08:10:21 10° SSW 08:15:03 83° SE 08:19:29 10° NE daylight
20 Apr - 09:55:08 10° W 09:58:41 22° NNW 10:02:09 10° NNE daylight
20 Apr - 11:42:33 10° NNW 11:43:30 11° N 11:44:27 10° N daylight
20 Apr - 13:26:23 10° NNW 13:28:39 14° NNE 13:30:55 10° NE daylight
20 Apr - 15:08:46 10° NNW 15:12:56 41° NE 15:17:16 10° ESE daylight
20 Apr - 16:52:01 10° NW 16:55:59 33° WSW 17:00:09 10° S daylight
21 Apr - 07:36:17 10° SSW 07:40:54 58° ESE 07:45:15 10° NE daylight
21 Apr - 09:20:23 10° W 09:24:19 28° NW 09:28:06 10° NNE daylight
21 Apr - 11:07:27 10° NNW 11:08:56 11° NNW 11:10:25 10° N daylight
21 Apr - 12:52:22 10° N 12:54:06 12° NNE 12:55:51 10° NE daylight
21 Apr - 14:34:41 10° NNW 14:38:37 31° NE 14:42:41 10° ESE daylight
21 Apr - 16:17:39 10° NW 16:21:54 47° WSW 16:26:23 10° SSE daylight
22 Apr - 07:02:24 10° S 07:06:48 40° ESE 07:10:57 10° NE daylight
22 Apr - 08:45:45 10° WSW 08:49:59 36° NW 08:54:02 10° NNE daylight
22 Apr - 10:32:22 10° NW 10:34:22 13° NNW 10:36:23 10° N daylight
22 Apr - 12:18:19 10° N 12:19:32 11° N 12:20:46 10° NNE daylight
22 Apr - 14:00:37 10° NNW 14:04:16 25° NE 14:07:59 10° E daylight
22 Apr - 15:43:23 10° NW 15:47:47 69° SW 15:52:25 10° SSE daylight
22 Apr - 17:29:49 10° WSW 17:30:07 10° WSW 17:30:26 10° WSW daylight
23 Apr - 06:28:43 10° S 06:32:43 28° ESE 06:36:32 10° ENE daylight
23 Apr - 08:11:14 10° WSW 08:15:41 47° NW 08:19:57 10° NNE daylight
23 Apr - 09:57:19 10° WNW 09:59:51 15° NNW 10:02:21 10° NNE daylight
23 Apr - 11:44:14 10° N 11:44:58 10° N 11:45:41 10° NNE daylight
23 Apr - 13:26:35 10° NNW 13:29:52 20° NNE 13:33:12 10° E daylight
23 Apr - 15:09:11 10° NW 15:13:37 84° NE 15:18:16 10° SE daylight
23 Apr - 16:53:35 10° WNW 16:56:11 15° WSW 16:58:51 10° SW daylight
24 Apr - 05:55:20 10° SSE 05:58:42 20° ESE 06:01:56 10° ENE daylight
24 Apr - 07:36:50 10° SW 07:41:26 66° NW 07:45:49 10° NNE daylight
24 Apr - 09:22:22 10° WNW 09:25:22 17° NNW 09:28:20 10° NNE daylight
24 Apr - 11:09:51 10° N 11:10:22 10° N 11:10:53 10° N daylight
24 Apr - 12:52:33 10° NNW 12:55:23 17° NNE 12:58:18 10° ENE daylight
24 Apr - 14:35:02 10° NNW 14:39:24 60° NE 14:43:59 10° SE daylight
24 Apr - 16:18:45 10° WNW 16:22:11 22° WSW 16:25:46 10° SSW daylight
25 Apr - 05:22:25 10° SE 05:24:44 14° ESE 05:26:58 10° ENE daylight
25 Apr - 07:02:35 10° SW 07:07:14 89° SE 07:11:39 10° NE daylight
25 Apr - 08:47:29 10° W 08:50:56 21° NNW 08:54:18 10° NNE daylight
25 Apr - 10:34:56 10° NNW 10:35:47 10° N 10:36:37 10° N daylight
25 Apr - 12:18:31 10° NNW 12:20:54 14° NNE 12:23:18 10° NE daylight
25 Apr - 14:00:55 10° NNW 14:05:08 44° NE 14:09:33 10° ESE daylight
25 Apr - 15:44:14 10° NW 15:48:09 31° WSW 15:52:17 10° S daylight
26 Apr - 06:28:29 10° SSW 06:33:04 63° ESE 06:37:26 10° NE daylight
26 Apr - 08:12:43 10° W 08:16:32 26° NW 08:20:15 10° NNE daylight
26 Apr - 09:59:50 10° NNW 10:01:12 11° N 10:02:33 10° N daylight
26 Apr - 11:44:30 10° N 11:46:22 12° NNE 11:48:15 10° NE daylight
26 Apr - 13:26:50 10° NNW 13:30:50 33° NE 13:35:00 10° ESE daylight
26 Apr - 15:09:51 10° NW 15:14:04 44° WSW 15:18:33 10° S daylight
